[[{"header":{"parameterUnit":"m.s-1","parameterCategory":2,"la1":30.2991,"la2":30.254,"lo1":-89.0895,"lo2":-89.0444,"dy":0.0017,"dx":0.0017,"nx":28,"ny":28,"refTime":"2025-12-20T09:00:00:Z","depth":"0","parameterNumber":2,"parameterNumberName":"U-component_of_CURRENTS"},"data":[0,0,0,0,0,0,0,0,0,0,0,0,0,0,0,0,0,0,0,0,0,0,0,0,0,0,0,0,0,0,0,0,0,0,0,0,0,0,0,0,0,0,0,0,0,0,0,0,0,0,0,0,0,0,0,0,0,0,0.4074,0.4073,0,0.4057,0.4057,0.4056,0.4031,0.403,0.403,0.403,0.4011,0.4011,0.4011,0,0,0,0,0,0,0,0,0,0,0,0,0,0.4117,0.4116,0.4074,0.4073,0.4073,0.4057,0.4057,0.4056,0.4031,0.403,0.403,0.403,0.4011,0.4011,0.4011,0,0,0,0,0,0,0,0,0,0,0,0,0,0.4097,0.4115,0.4074,0.406,0.4059,0.4057,0.4057,0.4056,0.4031,0.403,0.403,0.4029,0.4011,0.4011,0.4011,0.4017,0,0,0.401,0.401,0,0,0,0,0,0,0,0,0.4098,0.4095,0.4062,0.4061,0.406,0.4047,0.4065,0.4044,0.4031,0.4039,0.403,0.4029,0.4025,0.4023,0.4018,0.4016,0.4016,0.401,0.401,0.4009,0.4009,0,0,0,0,0,0,0,0.4099,0.4096,0.4065,0.4062,0.4061,0.4067,0.4063,0.4061,0.4033,0.4039,0.4037,0.4039,0.4024,0.4019,0.4018,0.4015,0.401,0.4009,0.4009,0.4009,0.4065,0.4067,0,0,0,0,0,0,0.4104,0.4097,0.4066,0.4065,0.408,0.4066,0.4062,0.405,0.4033,0.4031,0.4039,0.4038,0.402,0.4018,0.4017,0.4058,0.4009,0.4009,0.4009,0.4063,0.4065,0.4067,0,0,0,0,0,0,0.4105,0.4101,0.4066,0.4083,0.4079,0.4066,0.4053,0.405,0.4051,0.4034,0.4031,0.4044,0.4019,0.4018,0.403,0.4056,0.4009,0.4009,0.4061,0.4064,0.4066,0.4118,0,0,0,0,0,0,0.4106,0.4101,0.4098,0.4083,0.4078,0.4078,0.4053,0.405,0.4053,0.4051,0.4037,0.4034,0.4019,0.403,0.4029,0.4054,0.4008,0.4059,0.4063,0.4066,0.4114,0.4122,0.4129,0,0,0,0,0,0.4107,0.4109,0.4098,0.4095,0.4073,0.4079,0.4078,0.4066,0.4054,0.4063,0.4055,0.4035,0.405,0.4031,0.403,0.4055,0.4058,0.4062,0.4065,0.4111,0.4121,0.4129,0,0,0,0,0,0,0.4124,0.4106,0.4094,0.4088,0.4089,0.4075,0.4085,0.4074,0.4073,0.4073,0.405,0.4048,0.4073,0.406,0.404,0.4084,0.4053,0.4057,0.4089,0.4098,0.4105,0.4136,0.4008,0,0,0,0,0,0.4127,0.4126,0.4111,0.411,0.4112,0.41,0.4101,0.4094,0.409,0.4088,0.4077,0.4075,0.4087,0.4088,0.4094,0.411,0.4167,0.413,0.4137,0.4143,0.417,0.4276,0.4297,0.408,0.408,0.408,0,0,0.4136,0.4126,0.4126,0.4116,0.4114,0.4126,0.41,0.411,0.4119,0.4088,0.41,0.4101,0.41,0.4124,0.4134,0.4114,0.424,0.4148,0.4153,0.4177,0.4283,0.4304,0.4323,0.4082,0.4082,0.4081,0,0,0.4158,0.4144,0.4151,0.4158,0.416,0.4154,0.4161,0.4153,0.4149,0.4161,0.4151,0.4172,0.4169,0.4182,0.4187,0.4241,0.4279,0.4239,0.4294,0.4397,0.4416,0.4434,0.4559,0.4587,0.4237,0.4237,0.4237,0,0.4172,0.417,0.4159,0.4173,0.4187,0.4171,0.4192,0.4189,0.4185,0.421,0.4174,0.4228,0.4203,0.4268,0.4273,0.4258,0.4337,0.4255,0.4409,0.4427,0.4444,0.4568,0.4599,0.424,0.424,0.4239,0.4239,0,0.4195,0.4204,0.4216,0.4225,0.424,0.4259,0.4257,0.4276,0.4268,0.4277,0.4335,0.4316,0.4367,0.4344,0.4313,0.4424,0.445,0.441,0.4388,0.447,0.4595,0.4626,0.4244,0.4243,0.4242,0.4242,0,0,0.4196,0.4225,0.4229,0.425,0.427,0.4285,0.4323,0.4363,0.4427,0.4409,0.4519,0.448,0.4503,0.4512,0.4492,0.454,0.4702,0.4524,0.4528,0.4653,0.4975,0.4899,0.4926,0.4699,0.4704,0.4708,0.5023,0,0.4218,0.4253,0.4266,0.4315,0.4336,0.4362,0.4409,0.4452,0.4492,0.4599,0.4603,0.4684,0.456,0.4612,0.4645,0.4706,0.4784,0.4623,0.4874,0.4883,0.4808,0.4958,0.4724,0.4976,0.5054,0.5059,0.5063,0,0.4228,0.4253,0.4297,0.4373,0.439,0.4421,0.4531,0.4576,0.4713,0.4769,0.4859,0.4896,0.4988,0.4874,0.5019,0.4932,0.497,0.4986,0.4998,0.4932,0.4863,0.4903,0.503,0.4879,0.511,0.5107,0.5103,0,0.4219,0.4279,0.4315,0.4335,0.4414,0.4458,0.4509,0.4626,0.4709,0.491,0.5026,0.5136,0.5216,0.5283,0.5274,0.5196,0.5452,0.5359,0.5334,0.5331,0.5183,0.5156,0.5192,0.5496,0.5495,0.5494,0.5493,0,0.4228,0.4258,0.4314,0.4333,0.4418,0.447,0.4595,0.4683,0.4865,0.4998,0.5115,0.525,0.5315,0.5439,0.5433,0.5494,0.5593,0.5404,0.542,0.5194,0.5166,0.5064,0.4981,0.5506,0.5503,0.5501,0.5499,0,0.4208,0.4238,0.4296,0.4381,0.441,0.4474,0.4627,0.4725,0.4896,0.5101,0.5183,0.5392,0.5551,0.5616,0.5757,0.5681,0.5604,0.5749,0.5487,0.5463,0.5248,0.5176,0.513,0.4975,0.5818,0.5819,0.5819,0,0.4196,0.4216,0.4317,0.4356,0.439,0.449,0.4561,0.4728,0.484,0.5151,0.5253,0.5494,0.5623,0.5839,0.5783,0.5857,0.5642,0.5667,0.5438,0.5258,0.5194,0.4992,0.4849,0.5294,0.529,0.5287,0.5284,0,0.4182,0.422,0.4272,0.4356,0.4421,0.45,0.461,0.4704,0.4909,0.5081,0.5288,0.5433,0.5634,0.5595,0.5691,0.5679,0.5382,0.5598,0.5482,0.4862,0.458,0.4428,0.5091,0.5254,0.5257,0.5259,0.526,0.5262,0.4177,0.4217,0.4287,0.4359,0.4417,0.4462,0.4481,0.4613,0.4763,0.4929,0.5164,0.526,0.5357,0.5448,0.5426,0.5208,0.5182,0.5014,0.4982,0.4826,0.4529,0.5138,0.5248,0.5251,0.5253,0.5255,0.5257,0,0.4166,0.4211,0.4277,0.4332,0.4328,0.439,0.4466,0.4442,0.4517,0.4707,0.4836,0.4879,0.4888,0.4921,0.48,0.4608,0.4381,0.4481,0.4131,0.4047,0.4673,0.4494,0.4356,0.4356,0.4357,0.4357,0.4357,0.4357,0.4165,0.4209,0.4237,0.4215,0.4221,0.4144,0.4137,0.4127,0.4193,0.4185,0.417,0.4257,0.4446,0.4491,0.4289,0.4178,0.3835,0.3664,0.3677,0.4096,0.4141,0.4183,0.3996,0.3756,0.3755,0.2854,0.2847,0.2842]},{"header":{"parameterUnit":"m.s-1","parameterCategory":2,"la1":30.2991,"la2":30.254,"lo1":-89.0895,"lo2":-89.0444,"dy":0.0017,"dx":0.0017,"nx":28,"ny":28,"refTime":"2025-12-20T09:00:00:Z","depth":"0","parameterNumber":3,"parameterNumberName":"V-component_of_CURRENTS"},"data":[0,0,0,0,0,0,0,0,0,0,0,0,0,0,0,0,0,0,0,0,0,0,0,0,0,0,0,0,0,0,0,0,0,0,0,0,0,0,0,0,0,0,0,0,0,0,0,0,0,0,0,0,0,0,0,0,0,0,0.0178,0.0177,0,0.0112,0.0111,0.011,0.0058,0.0058,0.0058,0.0057,-0.0025,-0.0027,-0.0028,0,0,0,0,0,0,0,0,0,0,0,0,0,0.0207,0.0207,0.0178,0.0177,0.0177,0.0112,0.0111,0.011,0.0058,0.0058,0.0057,0.0057,-0.0024,-0.0026,-0.0029,0,0,0,0,0,0,0,0,0,0,0,0,0,0.0171,0.0207,0.0178,0.0144,0.0141,0.0112,0.0111,0.0109,0.0058,0.0058,0.0057,0.0057,-0.0023,-0.0026,-0.0029,-0.0036,0,0,-0.0037,-0.0039,0,0,0,0,0,0,0,0,0.0173,0.017,0.015,0.0147,0.0143,0.0094,0.0091,0.0061,0.0058,0.0088,0.0057,0.0057,0.0015,0.0009,-0.0004,-0.0039,-0.0043,-0.0038,-0.0039,-0.0041,-0.0041,0,0,0,0,0,0,0,0.0176,0.0172,0.015,0.0149,0.0145,0.0114,0.0109,0.0084,0.0054,0.0085,0.0082,0.0077,0.0012,-0.0002,-0.0007,-0.0044,-0.0038,-0.004,-0.0042,-0.0043,-0.0083,-0.0083,0,0,0,0,0,0,0.0191,0.0175,0.0152,0.0148,0.0159,0.0115,0.0108,0.0109,0.0054,0.0046,0.0078,0.0075,0.0003,-0.0003,-0.001,0.0002,-0.0041,-0.0043,-0.0045,-0.0084,-0.0083,-0.0083,0,0,0,0,0,0,0.0192,0.019,0.0155,0.0161,0.0155,0.0115,0.0116,0.0108,0.0098,0.0049,0.004,0.0077,0.0003,-0.0006,-0.0023,-0.0002,-0.0044,-0.0047,-0.0085,-0.0084,-0.0083,0.0012,0,0,0,0,0,0,0.0193,0.0191,0.0195,0.0162,0.0155,0.0154,0.0116,0.0107,0.0097,0.0093,0.0045,0.0036,0.0002,-0.0019,-0.0026,-0.0007,-0.0049,-0.0085,-0.0084,-0.0083,0.0008,0.0016,0.0023,0,0,0,0,0,0.0194,0.0213,0.0196,0.0193,0.0163,0.0155,0.0149,0.0117,0.0097,0.0104,0.0067,0.0038,-0.0017,-0.002,-0.0029,-0.001,-0.0086,-0.0085,-0.0083,0.0005,0.0014,0.0022,0,0,0,0,0,0,0.0228,0.0208,0.0189,0.02,0.0183,0.0147,0.0149,0.0126,0.0101,0.0096,0.0046,0.0036,0.0026,-0.0005,-0.0008,-0.002,-0.0056,-0.0057,0.0014,0.0022,0.0029,0.0062,-0.0051,0,0,0,0,0,0.0238,0.0245,0.0218,0.0227,0.0222,0.0185,0.0176,0.0157,0.0131,0.0119,0.0085,0.0049,0.0024,0.0014,-0.0017,-0.0019,-0.0035,-0.0014,-0.0006,0.0,0.002,0.0007,0.0015,-0.0078,-0.0078,-0.0078,0,0,0.0252,0.0242,0.0246,0.0234,0.0215,0.0229,0.0179,0.0177,0.0188,0.0115,0.0117,0.0072,0.0027,0.0021,0.0015,0.0,0.002,0.0002,0.0008,0.0025,0.0009,0.0019,0.0027,-0.0077,-0.0077,-0.0078,0,0,0.0298,0.0278,0.0303,0.0297,0.0282,0.0263,0.0268,0.0238,0.0224,0.0216,0.0167,0.0139,0.01,0.0075,0.0057,0.0087,0.0055,0.0074,0.0145,0.0132,0.014,0.0147,0.015,0.0156,0.0083,0.0084,0.0084,0,0.0317,0.0346,0.031,0.0335,0.0345,0.0288,0.0326,0.0302,0.027,0.0276,0.0231,0.0185,0.0129,0.0142,0.0137,0.0107,0.01,0.0117,0.0144,0.015,0.0156,0.0157,0.0163,0.0088,0.0088,0.0087,0.0087,0,0.0384,0.0407,0.0423,0.0439,0.0442,0.0464,0.0436,0.0428,0.0396,0.038,0.0374,0.0297,0.0276,0.0245,0.0193,0.0212,0.0195,0.0152,0.0128,0.0171,0.0169,0.0174,0.0095,0.0093,0.0092,0.0091,0,0,0.0434,0.0468,0.0474,0.0512,0.0505,0.0524,0.0534,0.0548,0.0587,0.0519,0.0577,0.0478,0.0437,0.0412,0.0347,0.032,0.0328,0.0256,0.0253,0.0272,0.032,0.0282,0.0282,0.0291,0.0292,0.0293,0.0307,0,0.0503,0.0588,0.0579,0.0662,0.0708,0.0669,0.0698,0.0696,0.0684,0.072,0.0635,0.0658,0.0504,0.0513,0.045,0.0377,0.0342,0.0329,0.0264,0.0263,0.0233,0.0287,0.0263,0.0271,0.0311,0.0312,0.0313,0,0.0575,0.0628,0.0724,0.08,0.0817,0.0849,0.0907,0.0933,0.0943,0.094,0.092,0.0872,0.0827,0.0696,0.0566,0.0569,0.0446,0.0368,0.0366,0.0304,0.0233,0.0229,0.0277,0.0047,0.0319,0.0318,0.0318,0,0.0649,0.0735,0.0823,0.0845,0.0907,0.0941,0.0975,0.1,0.1066,0.1107,0.1173,0.1085,0.1081,0.0917,0.0707,0.0653,0.0583,0.0489,0.0341,0.0337,0.0291,0.0282,0.0119,0.0397,0.0397,0.0397,0.0397,0,0.0736,0.0809,0.0866,0.0915,0.1037,0.1041,0.1172,0.1187,0.1267,0.1397,0.1303,0.1393,0.1133,0.105,0.0821,0.0613,0.0662,0.0377,0.0344,0.0323,0.0316,0.0091,-0.0049,0.0398,0.0398,0.0398,0.0397,0,0.081,0.0841,0.0955,0.1039,0.1075,0.1166,0.1305,0.1405,0.1458,0.1634,0.167,0.164,0.154,0.1279,0.1048,0.0785,0.0449,0.0492,0.0492,0.0456,0.007,-0.0063,-0.0249,-0.0341,0.0339,0.0338,0.0337,0,0.0858,0.0919,0.105,0.1129,0.1173,0.1305,0.1405,0.149,0.1618,0.1803,0.1909,0.1881,0.1902,0.1553,0.1097,0.0728,0.0469,0.0434,0.0294,0.0068,-0.0104,-0.0204,-0.0275,0.0277,0.0276,0.0275,0.0274,0,0.0953,0.0989,0.1084,0.1243,0.1361,0.152,0.1672,0.1801,0.1941,0.2114,0.232,0.2375,0.2042,0.1664,0.1122,0.0833,0.0261,0.0402,0.0167,-0.0159,-0.0275,-0.0385,0.0257,0.0266,0.0267,0.0268,0.0268,0.0269,0.1018,0.1102,0.1213,0.1369,0.1514,0.1702,0.1855,0.2051,0.2296,0.258,0.2608,0.2739,0.2153,0.1422,0.1009,0.0193,0.0193,-0.0077,-0.021,-0.0282,-0.0408,0.0225,0.0186,0.0186,0.0187,0.0187,0.0187,0,0.1098,0.1187,0.1332,0.1518,0.1684,0.1749,0.2013,0.2194,0.2508,0.2779,0.2981,0.2738,0.2047,0.1303,0.02,-0.033,-0.0522,-0.0612,-0.0775,-0.0813,-0.0246,-0.0288,-0.043,-0.043,-0.043,-0.0429,-0.0429,-0.0429,0.1143,0.128,0.135,0.1614,0.1753,0.1996,0.2155,0.245,0.2684,0.3,0.3071,0.3077,0.2421,0.0597,-0.0619,-0.0877,-0.123,-0.1332,-0.1468,-0.1121,-0.1082,-0.1044,-0.1117,-0.143,-0.1431,-0.1974,-0.198,-0.1984]}],[{"header":{"parameterUnit":"m.s-1","parameterCategory":2,"la1":30.2991,"la2":30.254,"lo1":-89.0895,"lo2":-89.0444,"dy":0.0017,"dx":0.0017,"nx":28,"ny":28,"refTime":"2025-12-20T09:00:00:Z","depth":"2","parameterNumber":2,"parameterNumberName":"U-component_of_CURRENTS"},"data":[0,0,0,0,0,0,0,0,0,0,0,0,0,0,0,0,0,0,0,0,0,0,0,0,0,0,0,0,0,0,0,0,0,0,0,0,0,0,0,0,0,0,0,0,0,0,0,0,0,0,0,0,0,0,0,0,0,0,0.3279,0.328,0,0.3341,0.3341,0.3341,0.3357,0.3357,0.3357,0.3357,0.3379,0.3379,0.338,0,0,0,0,0,0,0,0,0,0,0,0,0,0.3183,0.3184,0.3279,0.328,0.3281,0.334,0.3341,0.3342,0.3357,0.3357,0.3357,0.3357,0.3379,0.3379,0.338,0,0,0,0,0,0,0,0,0,0,0,0,0,0.3229,0.3185,0.3279,0.3298,0.3301,0.334,0.3341,0.3342,0.3357,0.3357,0.3357,0.3357,0.3378,0.3379,0.338,0.3389,0,0,0.3383,0.3384,0,0,0,0,0,0,0,0,0.3227,0.3233,0.3294,0.3297,0.33,0.3344,0.3316,0.3357,0.3357,0.3332,0.3357,0.3356,0.3366,0.3368,0.3375,0.339,0.3391,0.3383,0.3384,0.3385,0.3385,0,0,0,0,0,0,0,0.3224,0.323,0.33,0.3296,0.3299,0.3307,0.3313,0.3323,0.3346,0.3334,0.3336,0.3349,0.3366,0.3374,0.3376,0.3392,0.3383,0.3384,0.3385,0.3385,0.3481,0.3482,0,0,0,0,0,0,0.3223,0.3227,0.3298,0.3302,0.3266,0.3309,0.3316,0.3327,0.3346,0.3351,0.3349,0.3349,0.3373,0.3375,0.3377,0.344,0.3385,0.3385,0.3386,0.3479,0.3481,0.3483,0,0,0,0,0,0,0.322,0.3228,0.3296,0.3268,0.3278,0.3311,0.3324,0.3329,0.3351,0.3358,0.3361,0.3369,0.3373,0.3375,0.3407,0.3439,0.3386,0.3387,0.3476,0.3479,0.3482,0.3534,0,0,0,0,0,0,0.3217,0.3227,0.3238,0.3269,0.328,0.3332,0.3324,0.333,0.336,0.3361,0.3376,0.3377,0.3373,0.3406,0.3408,0.344,0.3388,0.3474,0.3478,0.3481,0.353,0.3538,0.3546,0,0,0,0,0,0.3213,0.323,0.3238,0.3247,0.3292,0.3333,0.334,0.336,0.3361,0.3378,0.3392,0.3378,0.3431,0.3408,0.341,0.3443,0.3472,0.3477,0.3481,0.3526,0.3537,0.3546,0,0,0,0,0,0,0.3195,0.3234,0.3243,0.3271,0.3306,0.3337,0.3359,0.3371,0.3395,0.34,0.3398,0.3401,0.3443,0.3438,0.3414,0.3484,0.3451,0.3456,0.3485,0.3495,0.3502,0.3513,0.3388,0,0,0,0,0,0.3196,0.3219,0.3257,0.3282,0.3302,0.3332,0.3353,0.337,0.3395,0.3407,0.3418,0.3436,0.3462,0.3473,0.3492,0.3524,0.355,0.355,0.3558,0.3564,0.3577,0.3653,0.3669,0.3497,0.3497,0.3497,0,0,0.3194,0.3222,0.3233,0.328,0.3308,0.3343,0.3344,0.3385,0.3416,0.3405,0.3448,0.3464,0.3478,0.352,0.3539,0.352,0.3628,0.357,0.3575,0.3584,0.3659,0.3676,0.3691,0.35,0.35,0.3499,0,0,0.3204,0.3231,0.3253,0.3286,0.3337,0.3362,0.3378,0.342,0.3443,0.3485,0.3492,0.3531,0.3558,0.3583,0.3597,0.3661,0.3669,0.3666,0.3711,0.3784,0.3799,0.3812,0.387,0.3888,0.3667,0.3667,0.3667,0,0.3201,0.3236,0.3267,0.3302,0.3333,0.3372,0.3407,0.344,0.3487,0.3517,0.3507,0.3587,0.3592,0.366,0.3681,0.3679,0.3718,0.3669,0.3795,0.3808,0.3821,0.3877,0.3896,0.367,0.367,0.3669,0.3669,0,0.3227,0.326,0.3282,0.3337,0.3375,0.3415,0.3466,0.3507,0.3537,0.3572,0.3647,0.3667,0.3718,0.3727,0.372,0.3816,0.3814,0.3798,0.3769,0.3842,0.3895,0.3914,0.3674,0.3673,0.3672,0.3672,0,0,0.3202,0.3282,0.3289,0.332,0.3398,0.3429,0.3496,0.3567,0.3623,0.3668,0.3746,0.3789,0.3813,0.3832,0.384,0.3895,0.4011,0.3887,0.3889,0.394,0.4177,0.4104,0.4117,0.4021,0.4025,0.4028,0.4179,0,0.3213,0.3271,0.3315,0.3378,0.3415,0.3477,0.3537,0.3608,0.3673,0.3759,0.3809,0.3885,0.3851,0.3891,0.3943,0.4008,0.4064,0.3971,0.4102,0.4106,0.4029,0.4137,0.3802,0.3904,0.4198,0.4201,0.4203,0,0.3221,0.3262,0.3317,0.3404,0.3428,0.3474,0.3584,0.3648,0.3777,0.3834,0.3923,0.3972,0.4078,0.4032,0.4177,0.4125,0.4157,0.4188,0.4195,0.4122,0.4068,0.3879,0.3927,0.4235,0.4232,0.423,0.4228,0,0.3177,0.3263,0.3305,0.3333,0.3437,0.348,0.3547,0.3669,0.3748,0.3901,0.3982,0.4096,0.4181,0.425,0.4308,0.4266,0.446,0.4409,0.4369,0.4363,0.4101,0.4066,0.4507,0.4507,0.4507,0.4506,0.4506,0,0.3167,0.3198,0.3288,0.3307,0.3379,0.3462,0.356,0.3649,0.3802,0.3901,0.4021,0.4119,0.4244,0.4355,0.4378,0.4447,0.4523,0.4409,0.4412,0.4109,0.4075,0.437,0.4352,0.4512,0.4511,0.4509,0.4508,0,0.3106,0.3164,0.3217,0.332,0.3357,0.3411,0.3564,0.3631,0.3792,0.3933,0.3993,0.4192,0.4341,0.444,0.4578,0.4541,0.4606,0.4596,0.4229,0.4186,0.4441,0.4424,0.459,0.4589,0.4588,0.4587,0.4587,0,0.3077,0.31,0.3204,0.3237,0.3283,0.3378,0.3436,0.3607,0.3685,0.395,0.4004,0.4227,0.4327,0.4525,0.4523,0.4584,0.4632,0.4283,0.4132,0.447,0.4457,0.4441,0.4426,0.3807,0.38,0.3795,0.379,0,0.3025,0.3065,0.3095,0.3168,0.3228,0.3294,0.3394,0.3455,0.3648,0.3776,0.3945,0.4067,0.4279,0.4207,0.4304,0.4276,0.425,0.417,0.4647,0.3837,0.3744,0.3727,0.3736,0.374,0.3745,0.3748,0.3751,0.3753,0.2972,0.2975,0.3022,0.3079,0.3144,0.3171,0.317,0.3272,0.337,0.3505,0.3735,0.3811,0.3922,0.3912,0.3822,0.3762,0.4044,0.3851,0.3864,0.3883,0.3764,0.3675,0.3635,0.364,0.3643,0.3647,0.365,0,0.2888,0.2904,0.2935,0.2964,0.2963,0.3067,0.3102,0.3053,0.3071,0.3259,0.338,0.3211,0.3218,0.3322,0.3163,0.3186,0.3099,0.3051,0.2897,0.2954,0.3003,0.2831,0.2458,0.2454,0.245,0.2446,0,0,0.2843,0.2808,0.2805,0.2768,0.2806,0.274,0.2726,0.2683,0.2738,0.2733,0.278,0.3084,0.3247,0.2803,0.2769,0.2579,0.2728,0.2481,0.3451,0.3328,0.337,0.3502,0.3309,0,0,0,0,0]},{"header":{"parameterUnit":"m.s-1","parameterCategory":2,"la1":30.2991,"la2":30.254,"lo1":-89.0895,"lo2":-89.0444,"dy":0.0017,"dx":0.0017,"nx":28,"ny":28,"refTime":"2025-12-20T09:00:00:Z","depth":"2","parameterNumber":3,"parameterNumberName":"V-component_of_CURRENTS"},"data":[0,0,0,0,0,0,0,0,0,0,0,0,0,0,0,0,0,0,0,0,0,0,0,0,0,0,0,0,0,0,0,0,0,0,0,0,0,0,0,0,0,0,0,0,0,0,0,0,0,0,0,0,0,0,0,0,0,0,0.0107,0.0107,0,0.005,0.0049,0.0048,0.0002,0.0002,0.0002,0.0001,-0.0072,-0.0074,-0.0076,0,0,0,0,0,0,0,0,0,0,0,0,0,0.0126,0.0126,0.0107,0.0107,0.0106,0.005,0.0049,0.0048,0.0003,0.0002,0.0002,0.0001,-0.0072,-0.0074,-0.0076,0,0,0,0,0,0,0,0,0,0,0,0,0,0.0097,0.0126,0.0107,0.0077,0.0074,0.005,0.0049,0.0048,0.0003,0.0002,0.0002,0.0001,-0.0071,-0.0074,-0.0076,-0.0081,0,0,-0.0083,-0.0085,0,0,0,0,0,0,0,0,0.0099,0.0096,0.0082,0.0079,0.0076,0.0034,0.0029,0.0004,0.0003,0.0028,0.0001,0.0001,-0.0037,-0.0042,-0.0054,-0.0084,-0.0088,-0.0084,-0.0085,-0.0086,-0.0087,0,0,0,0,0,0,0,0.0101,0.0098,0.0083,0.0082,0.0078,0.005,0.0045,0.0024,-0.0002,0.0026,0.0023,0.0019,-0.0039,-0.0051,-0.0056,-0.0089,-0.0084,-0.0086,-0.0087,-0.0088,-0.0124,-0.0124,0,0,0,0,0,0,0.0114,0.0101,0.0085,0.0082,0.0088,0.005,0.0045,0.0047,-0.0002,-0.0009,0.0019,0.0017,-0.0047,-0.0053,-0.0058,-0.0049,-0.0086,-0.0089,-0.009,-0.0125,-0.0124,-0.0124,0,0,0,0,0,0,0.0115,0.0114,0.0087,0.009,0.0085,0.0051,0.0053,0.0046,0.0037,-0.0006,-0.0014,0.0018,-0.0047,-0.0055,-0.007,-0.0053,-0.009,-0.0092,-0.0126,-0.0125,-0.0124,-0.0043,0,0,0,0,0,0,0.0116,0.0114,0.0119,0.0092,0.0086,0.0086,0.0053,0.0045,0.0036,0.0032,-0.001,-0.0018,-0.0048,-0.0066,-0.0073,-0.0057,-0.0094,-0.0126,-0.0125,-0.0124,-0.0046,-0.0039,-0.0033,0,0,0,0,0,0.0117,0.0134,0.012,0.0117,0.0094,0.0087,0.0082,0.0053,0.0037,0.0042,0.001,-0.0016,-0.0065,-0.0068,-0.0076,-0.006,-0.0127,-0.0126,-0.0124,-0.0049,-0.0041,-0.0034,0,0,0,0,0,0,0.0144,0.013,0.0114,0.0125,0.011,0.008,0.0081,0.0061,0.004,0.0035,-0.0009,-0.0018,-0.0027,-0.0055,-0.0057,-0.0069,-0.01,-0.0101,-0.004,-0.0033,-0.0027,-0.0006,-0.0096,0,0,0,0,0,0.0153,0.016,0.0139,0.0147,0.0143,0.0112,0.0105,0.0088,0.0065,0.0055,0.0025,-0.0007,-0.0028,-0.0039,-0.0065,-0.0068,-0.0103,-0.0065,-0.0058,-0.0053,-0.0042,-0.008,-0.0075,-0.012,-0.012,-0.012,0,0,0.0164,0.0157,0.016,0.0153,0.0137,0.0149,0.0107,0.0104,0.0113,0.0051,0.0052,0.0014,-0.0026,-0.0031,-0.0037,-0.0051,-0.0059,-0.0051,-0.0046,-0.0038,-0.0078,-0.0074,-0.007,-0.0119,-0.0119,-0.0119,0,0,0.0199,0.0186,0.0206,0.0203,0.019,0.0176,0.0181,0.0156,0.0143,0.0137,0.0095,0.0071,0.0037,0.0014,-0.0002,0.0024,-0.0027,0.0013,0.0066,0.0029,0.0033,0.0035,-0.0006,-0.0007,0.0019,0.002,0.002,0,0.0212,0.0236,0.0211,0.0231,0.0239,0.0196,0.0225,0.0208,0.0181,0.0179,0.0149,0.0099,0.0061,0.0059,0.0063,0.004,0.0007,0.0042,0.0038,0.004,0.0042,-0.0001,-0.0004,0.0024,0.0023,0.0023,0.0022,0,0.0264,0.0282,0.0296,0.031,0.0315,0.0332,0.0312,0.0307,0.0282,0.0263,0.0248,0.019,0.0163,0.0144,0.0109,0.0107,0.0076,0.0049,0.0023,0.0051,0.0004,-0.0001,0.0029,0.0028,0.0027,0.0026,0,0,0.0298,0.0328,0.0333,0.036,0.0361,0.0375,0.0387,0.0393,0.0412,0.0362,0.0379,0.032,0.0281,0.0259,0.021,0.0174,0.0145,0.0121,0.0117,0.0087,0.006,0.0025,0.0016,0.0117,0.0117,0.0117,0.0022,0,0.0347,0.0413,0.041,0.0473,0.0508,0.0482,0.0504,0.0498,0.0482,0.0484,0.0415,0.0407,0.0329,0.0318,0.0269,0.0185,0.0138,0.0173,0.0031,0.0027,-0.0003,0.0011,0.0046,-0.0036,0.0017,0.0017,0.0016,0,0.04,0.0441,0.0514,0.0567,0.058,0.0606,0.0639,0.0658,0.0641,0.0625,0.0593,0.0536,0.0482,0.0407,0.027,0.0296,0.0185,0.0106,0.01,0.0038,-0.0016,-0.0057,-0.0047,0.0008,0.0009,0.0009,0.001,0,0.0449,0.0514,0.058,0.0598,0.0646,0.0669,0.0695,0.07,0.0744,0.0722,0.0739,0.0651,0.0625,0.0477,0.0301,0.0286,0.0142,0.0101,-0.004,-0.0045,-0.0057,-0.0061,-0.0006,-0.0006,-0.0006,-0.0006,-0.0005,0,0.0509,0.056,0.0609,0.0646,0.0734,0.0738,0.0827,0.0828,0.0863,0.0934,0.0823,0.0847,0.0642,0.0529,0.0344,0.0146,0.017,-0.0027,-0.0068,-0.0029,-0.003,-0.0025,-0.0025,-0.0009,-0.0009,-0.0008,-0.0007,0,0.0555,0.0581,0.0666,0.0731,0.0761,0.0827,0.0934,0.1001,0.1004,0.1092,0.1092,0.1009,0.0863,0.0635,0.0405,0.0223,0.0021,-0.0063,-0.0007,-0.004,-0.0155,-0.0151,-0.0223,-0.0225,-0.0227,-0.0228,-0.023,0,0.0585,0.0632,0.0737,0.0803,0.0839,0.0941,0.1022,0.1072,0.1161,0.1199,0.1254,0.1137,0.1081,0.072,0.0383,0.0054,0.001,-0.0145,-0.0173,-0.0143,-0.0176,-0.0169,-0.0162,-0.0162,-0.0163,-0.0163,-0.0163,0,0.065,0.068,0.0755,0.0894,0.0992,0.1122,0.1241,0.1334,0.1403,0.1463,0.1522,0.1476,0.1134,0.0817,0.0351,0.0127,-0.0091,-0.0166,-0.0141,-0.0111,-0.0093,-0.0122,-0.0117,-0.0167,-0.0167,-0.0166,-0.0166,-0.0166,0.0698,0.0762,0.0862,0.0998,0.112,0.1282,0.1402,0.1529,0.1676,0.1776,0.1727,0.1667,0.1282,0.0707,0.0299,-0.0126,-0.0108,-0.026,-0.0255,-0.0251,-0.0225,-0.0211,-0.0303,-0.0303,-0.0303,-0.0304,-0.0304,0,0.0765,0.0842,0.0964,0.1126,0.1271,0.1332,0.1538,0.1654,0.1828,0.1914,0.1952,0.1595,0.1223,0.0781,0.015,-0.0235,-0.0253,-0.0353,-0.029,-0.0283,-0.0278,-0.0251,-0.0338,-0.0339,-0.034,-0.0341,0,0,0.0801,0.0921,0.0984,0.1221,0.1347,0.1546,0.1671,0.183,0.1937,0.2018,0.1997,0.1918,0.1374,0.0913,0.0387,0.0026,-0.0036,-0.0043,0.0025,0.0169,0.0178,-0.0185,-0.0132,0,0,0,0,0]}],[{"header":{"parameterUnit":"m.s-1","parameterCategory":2,"la1":30.2991,"la2":30.254,"lo1":-89.0895,"lo2":-89.0444,"dy":0.0017,"dx":0.0017,"nx":28,"ny":28,"refTime":"2025-12-20T09:00:00:Z","depth":"4","parameterNumber":2,"parameterNumberName":"U-component_of_CURRENTS"},"data":[0,0,0,0,0,0,0,0,0,0,0,0,0,0,0,0,0,0,0,0,0,0,0,0,0,0,0,0,0,0,0,0,0,0,0,0,0,0,0,0,0,0,0,0,0,0,0,0,0,0,0,0,0,0,0,0,0,0,0.212,0.2121,0,0.2228,0.2229,0.223,0.2314,0.2315,0.2316,0.2317,0.2429,0.2431,0.2433,0,0,0,0,0,0,0,0,0,0,0,0,0,0.1981,0.1983,0.212,0.2121,0.2123,0.2227,0.2229,0.223,0.2314,0.2315,0.2316,0.2317,0.2429,0.2431,0.2434,0,0,0,0,0,0,0,0,0,0,0,0,0,0.2058,0.1984,0.212,0.2179,0.2185,0.2227,0.2229,0.223,0.2313,0.2315,0.2317,0.2318,0.2428,0.2431,0.2434,0.2422,0,0,0.2443,0.2445,0,0,0,0,0,0,0,0,0.2054,0.2063,0.2169,0.2175,0.2182,0.2261,0.2221,0.2296,0.2313,0.2263,0.2317,0.2319,0.2374,0.2381,0.2395,0.2428,0.2433,0.2444,0.2446,0.2447,0.2448,0,0,0,0,0,0,0,0.2048,0.2059,0.216,0.217,0.2179,0.2199,0.2211,0.2236,0.2307,0.2267,0.2274,0.2289,0.2378,0.2392,0.2398,0.2434,0.2444,0.2446,0.2448,0.2449,0.261,0.2613,0,0,0,0,0,0,0.2038,0.2054,0.2157,0.2164,0.2123,0.22,0.2214,0.2232,0.2307,0.232,0.2288,0.2293,0.2386,0.2395,0.2403,0.2521,0.2447,0.245,0.2451,0.2608,0.2611,0.2613,0,0,0,0,0,0,0.2035,0.2047,0.2153,0.2113,0.2128,0.2201,0.2221,0.2234,0.2297,0.2322,0.2336,0.2343,0.2387,0.2398,0.2472,0.2522,0.2451,0.2454,0.2605,0.2609,0.2612,0.2677,0,0,0,0,0,0,0.2031,0.2045,0.2076,0.2112,0.213,0.2207,0.222,0.2235,0.2301,0.231,0.2373,0.2383,0.2389,0.2467,0.2475,0.2525,0.2456,0.2602,0.2607,0.2611,0.2671,0.2682,0.2691,0,0,0,0,0,0.2025,0.2053,0.2076,0.209,0.2163,0.2209,0.222,0.2275,0.2303,0.2336,0.2386,0.2383,0.2502,0.2471,0.248,0.2532,0.26,0.2605,0.2611,0.2667,0.268,0.2691,0,0,0,0,0,0,0.2012,0.2066,0.2092,0.2137,0.2185,0.2225,0.2268,0.2299,0.2364,0.2388,0.241,0.2423,0.2507,0.2511,0.2477,0.2593,0.2552,0.2559,0.2592,0.2604,0.2614,0.2612,0.2459,0,0,0,0,0,0.2021,0.2062,0.2108,0.2152,0.2179,0.2232,0.2267,0.2303,0.2354,0.2387,0.2431,0.2481,0.2527,0.256,0.2597,0.2656,0.2663,0.2697,0.2707,0.2715,0.2721,0.278,0.2796,0.2631,0.2631,0.2631,0,0,0.2028,0.2066,0.209,0.2153,0.2198,0.2241,0.2258,0.2325,0.2373,0.2386,0.2481,0.2519,0.2551,0.2623,0.2661,0.2639,0.2767,0.2722,0.2729,0.273,0.2788,0.2803,0.2817,0.2635,0.2634,0.2634,0,0,0.2047,0.2099,0.2135,0.2176,0.225,0.2281,0.231,0.2377,0.2428,0.2507,0.2536,0.2606,0.2675,0.271,0.2732,0.2818,0.2818,0.284,0.2888,0.2947,0.296,0.2972,0.3,0.3014,0.2844,0.2844,0.2844,0,0.2058,0.2107,0.2154,0.2196,0.2239,0.2303,0.2348,0.2402,0.2489,0.2534,0.2552,0.2683,0.2714,0.2796,0.2832,0.2841,0.2865,0.2837,0.2958,0.297,0.2981,0.3008,0.3022,0.2848,0.2847,0.2847,0.2847,0,0.2086,0.2144,0.2173,0.2247,0.2297,0.2352,0.242,0.2491,0.2561,0.2609,0.2725,0.2776,0.2852,0.2879,0.2884,0.2986,0.2975,0.2962,0.2923,0.3002,0.3024,0.3038,0.2853,0.2852,0.2851,0.285,0,0,0.2061,0.2171,0.2187,0.223,0.2332,0.2368,0.2464,0.2554,0.2627,0.272,0.2812,0.2903,0.2944,0.2973,0.3002,0.3056,0.3156,0.3052,0.3054,0.307,0.3279,0.3078,0.3073,0.3174,0.3177,0.3179,0.3261,0,0.2077,0.2154,0.2212,0.2298,0.2342,0.243,0.251,0.2603,0.2695,0.28,0.2876,0.2978,0.2976,0.3037,0.3091,0.315,0.3198,0.3134,0.3208,0.321,0.3014,0.3084,0.3188,0.3271,0.3274,0.3277,0.3278,0,0.2077,0.2135,0.2215,0.2328,0.2359,0.2424,0.2564,0.2645,0.2793,0.2872,0.298,0.3044,0.3158,0.3142,0.327,0.3236,0.3266,0.3294,0.3298,0.3095,0.3034,0.3178,0.3303,0.3301,0.33,0.3298,0.3296,0,0.2014,0.2133,0.2199,0.2237,0.2373,0.2441,0.2528,0.2674,0.2757,0.2934,0.3014,0.3141,0.3234,0.3297,0.3361,0.3337,0.3481,0.3447,0.3287,0.3273,0.34,0.3386,0.3529,0.3529,0.3528,0.3528,0.3528,0,0.1982,0.2041,0.2184,0.2217,0.2311,0.2422,0.2542,0.2652,0.2814,0.2905,0.3052,0.3135,0.3285,0.3374,0.3401,0.3383,0.3516,0.3303,0.3285,0.3425,0.3413,0.3409,0.3394,0.3531,0.353,0.353,0.3529,0,0.1893,0.1991,0.207,0.2225,0.2283,0.2351,0.2536,0.2607,0.2791,0.2918,0.2982,0.3174,0.3285,0.3388,0.3508,0.3418,0.3433,0.3393,0.3541,0.353,0.3173,0.3161,0.3207,0.32,0.3195,0.319,0.3187,0,0.1849,0.1885,0.205,0.2097,0.2175,0.2302,0.2378,0.2577,0.265,0.2904,0.2936,0.3127,0.3225,0.3228,0.3356,0.3387,0.3353,0.3328,0.3234,0.3163,0.3144,0.314,0.3135,0.3178,0.3177,0.3175,0.3174,0,0.1759,0.1836,0.1898,0.1995,0.2083,0.2167,0.2297,0.2338,0.2554,0.2741,0.2828,0.2899,0.3018,0.3101,0.3158,0.3172,0.3323,0.3271,0.3281,0.3192,0.313,0.3114,0.3116,0.3155,0.3158,0.316,0.3161,0,0.1692,0.1707,0.1797,0.1864,0.1962,0.1995,0.209,0.2178,0.2285,0.2559,0.2584,0.279,0.2982,0.2992,0.3042,0.3044,0.2992,0.2883,0.2912,0.2934,0.2807,0.2685,0.2565,0,0,0,0,0,0.1611,0.1608,0.1655,0.171,0.1795,0.1859,0.201,0.2108,0.232,0.231,0.2444,0.254,0.2632,0.2748,0.2697,0.292,0.3,0.2846,0.2887,0.3053,0.3074,0.2951,0,0,0,0,0,0,0.1553,0.1593,0.1599,0.1566,0.1578,0.1654,0.1747,0.1892,0.1907,0.2136,0.2204,0.2379,0.2511,0.2631,0.2645,0.2678,0.2649,0.2982,0.2975,0.304,0.306,0.3077,0.2958,0,0,0,0,0]},{"header":{"parameterUnit":"m.s-1","parameterCategory":2,"la1":30.2991,"la2":30.254,"lo1":-89.0895,"lo2":-89.0444,"dy":0.0017,"dx":0.0017,"nx":28,"ny":28,"refTime":"2025-12-20T09:00:00:Z","depth":"4","parameterNumber":3,"parameterNumberName":"V-component_of_CURRENTS"},"data":[0,0,0,0,0,0,0,0,0,0,0,0,0,0,0,0,0,0,0,0,0,0,0,0,0,0,0,0,0,0,0,0,0,0,0,0,0,0,0,0,0,0,0,0,0,0,0,0,0,0,0,0,0,0,0,0,0,0,0.0105,0.0104,0,0.0065,0.0064,0.0064,0.0031,0.0031,0.003,0.003,-0.0027,-0.0028,-0.0029,0,0,0,0,0,0,0,0,0,0,0,0,0,0.0118,0.0118,0.0105,0.0104,0.0104,0.0065,0.0064,0.0063,0.0031,0.0031,0.003,0.003,-0.0026,-0.0028,-0.0029,0,0,0,0,0,0,0,0,0,0,0,0,0,0.0098,0.0118,0.0105,0.0084,0.0081,0.0065,0.0064,0.0063,0.0031,0.0031,0.003,0.003,-0.0026,-0.0028,-0.003,-0.0033,0,0,-0.0035,-0.0036,0,0,0,0,0,0,0,0,0.0099,0.0097,0.0087,0.0085,0.0082,0.0053,0.0048,0.003,0.0031,0.0049,0.003,0.003,-0.0001,-0.0005,-0.0012,-0.0036,-0.0039,-0.0036,-0.0037,-0.0038,-0.0038,0,0,0,0,0,0,0,0.0101,0.0099,0.0088,0.0087,0.0084,0.0064,0.0061,0.0044,0.0026,0.0048,0.0045,0.0042,-0.0002,-0.001,-0.0014,-0.0039,-0.0035,-0.0037,-0.0038,-0.0039,-0.0068,-0.0068,0,0,0,0,0,0,0.011,0.01,0.0089,0.0087,0.0091,0.0064,0.0061,0.0062,0.0026,0.0021,0.0043,0.0041,-0.0007,-0.0012,-0.0016,-0.0009,-0.0038,-0.0039,-0.004,-0.0069,-0.0068,-0.0068,0,0,0,0,0,0,0.011,0.0109,0.0091,0.0093,0.0089,0.0065,0.0066,0.0062,0.0056,0.0023,0.0017,0.0043,-0.0008,-0.0013,-0.0025,-0.0012,-0.004,-0.0042,-0.0069,-0.0069,-0.0068,-0.0004,0,0,0,0,0,0,0.0111,0.011,0.0114,0.0094,0.009,0.009,0.0067,0.0061,0.0055,0.0053,0.0021,0.0015,-0.0008,-0.0021,-0.0026,-0.0015,-0.0043,-0.007,-0.0069,-0.0068,-0.0007,-0.0001,0.0003,0,0,0,0,0,0.0111,0.0124,0.0115,0.0113,0.0097,0.0091,0.0087,0.0067,0.0056,0.0059,0.0037,0.0016,-0.0021,-0.0022,-0.0029,-0.0018,-0.007,-0.0069,-0.0068,-0.0009,-0.0002,0.0003,0,0,0,0,0,0,0.0131,0.0121,0.0111,0.0119,0.0108,0.0086,0.0087,0.0073,0.0058,0.0055,0.0022,0.0015,0.0009,-0.0013,-0.0014,-0.0025,-0.005,-0.005,-0.0002,0.0004,0.0008,0.0021,-0.0045,0,0,0,0,0,0.0138,0.0145,0.0129,0.0135,0.0133,0.0111,0.0106,0.0094,0.0077,0.007,0.0048,0.0024,0.0007,-0.0001,-0.0021,-0.0024,-0.006,-0.0022,-0.0017,-0.0013,-0.0007,-0.0049,-0.0047,-0.0065,-0.0065,-0.0065,0,0,0.0147,0.0142,0.0145,0.014,0.0129,0.0138,0.0107,0.0106,0.0113,0.0067,0.0068,0.0041,0.001,0.0006,0.0001,-0.0011,-0.0028,-0.0012,-0.0008,-0.0005,-0.0048,-0.0046,-0.0044,-0.0065,-0.0065,-0.0065,0,0,0.0171,0.0165,0.0179,0.0177,0.0169,0.0159,0.0163,0.0145,0.0136,0.0133,0.0102,0.0083,0.0059,0.0039,0.0027,0.0046,-0.0001,0.0039,0.0075,0.0036,0.0037,0.0037,-0.0011,-0.0016,0.0042,0.0042,0.0042,0,0.0181,0.0199,0.0182,0.0197,0.0204,0.0174,0.0196,0.0184,0.0165,0.0162,0.0143,0.0104,0.0076,0.0071,0.0075,0.0058,0.0023,0.0058,0.0042,0.0042,0.0042,-0.0008,-0.0014,0.0045,0.0045,0.0045,0.0044,0,0.0217,0.0233,0.0243,0.0255,0.0259,0.0272,0.026,0.0257,0.0241,0.0226,0.0214,0.0171,0.0149,0.0135,0.0111,0.0099,0.007,0.0053,0.003,0.0048,-0.0007,-0.0013,0.005,0.0049,0.0048,0.0047,0,0,0.0237,0.0264,0.0268,0.0289,0.0294,0.0304,0.0316,0.0319,0.0332,0.0296,0.0302,0.0263,0.0234,0.0216,0.0179,0.0142,0.0103,0.0101,0.0098,0.0057,0.0006,-0.0008,-0.0018,0.0082,0.0082,0.0081,-0.0033,0,0.0271,0.0318,0.0321,0.0369,0.0395,0.0381,0.0399,0.0396,0.0384,0.038,0.0325,0.0319,0.0268,0.026,0.0214,0.0136,0.0089,0.0135,-0.0009,-0.0014,-0.0024,-0.0024,0.0079,-0.0039,-0.004,-0.0041,-0.0042,0,0.0304,0.0336,0.0391,0.0435,0.0446,0.0469,0.0496,0.0512,0.0494,0.0481,0.0453,0.0409,0.0356,0.0308,0.0177,0.0208,0.0114,0.0043,0.0036,-0.0002,-0.004,-0.0061,-0.0055,-0.0054,-0.0053,-0.0052,-0.0052,0,0.0331,0.0384,0.0435,0.045,0.0492,0.0514,0.0538,0.0543,0.0574,0.0552,0.0559,0.048,0.045,0.0325,0.0178,0.0176,0.002,-0.0002,-0.0108,-0.0111,-0.0093,-0.0093,-0.0102,-0.0102,-0.0102,-0.0101,-0.0101,0,0.0366,0.0407,0.0455,0.0484,0.0554,0.0563,0.0634,0.0636,0.0658,0.07,0.0621,0.0621,0.0453,0.0345,0.0196,0.0025,0.0031,-0.0103,-0.0138,-0.0065,-0.006,-0.0099,-0.0097,-0.0106,-0.0105,-0.0104,-0.0103,0,0.0388,0.0416,0.0482,0.0541,0.0571,0.0622,0.0715,0.0765,0.0767,0.0815,0.0813,0.0728,0.0584,0.0398,0.0191,0.0064,-0.0107,-0.0173,-0.0085,-0.0113,-0.022,-0.0214,-0.0301,-0.0302,-0.0304,-0.0305,-0.0305,0,0.0403,0.0438,0.0531,0.0586,0.062,0.0707,0.0776,0.0819,0.0878,0.0882,0.0905,0.0786,0.0699,0.0404,0.0195,-0.0098,-0.0141,-0.0238,-0.0229,-0.0214,-0.024,-0.0231,-0.0223,-0.0307,-0.0308,-0.0308,-0.0308,0,0.0434,0.0466,0.0527,0.064,0.0725,0.0831,0.0926,0.0976,0.1021,0.1019,0.0988,0.083,0.0661,0.042,0.0187,-0.0022,-0.0178,-0.0251,-0.025,-0.0242,-0.0223,-0.0245,-0.0236,-0.0312,-0.0312,-0.0311,-0.0311,0,0.0462,0.0508,0.0591,0.0695,0.0806,0.0918,0.097,0.1036,0.1089,0.1081,0.1069,0.0877,0.077,0.0458,0.0247,0.0035,-0.0023,-0.0094,-0.0102,-0.01,-0.0012,0.0044,0.0008,0,0,0,0,0,0.0488,0.0548,0.0642,0.0757,0.0869,0.0939,0.1056,0.1097,0.1133,0.1125,0.1101,0.0941,0.0631,0.0503,0.0289,0.0205,-0.0074,-0.0055,-0.0162,-0.0334,-0.033,-0.0262,0,0,0,0,0,0,0.0506,0.0594,0.0643,0.0792,0.0879,0.1012,0.1091,0.112,0.112,0.1114,0.0962,0.0875,0.0582,0.0751,0.0281,0.0215,0.0115,-0.02,-0.0205,-0.0337,-0.0333,-0.0329,-0.0258,0,0,0,0,0]}]]